[TLELIST] Archives

 

[TLELIST] Current TLEs

February 10th 2024 PDT

HST 1 20580U 90037B 24040.61713291 .00007739 00000-0 38396-3 0 9992 2 20580 28.4691 125.2685 0003071 81.2602 278.8337 15.15857692657753 ISS (ZARYA) 1 25544U 98067A 24041.38228329 .00019142 00000-0 34593-3 0 9992 2 25544 51.6398 228.7072 0002119 222.4726 210.6656 15.49720711438738 CXO 1 25867U 99040B 24040.93994967 .00000904 00000-0 00000-0 0 9999 2 25867 38.6748 167.0934 8984272 286.5592 0.6300 0.37805510 14084 ...Continue Reading

[TLELIST] Current TLEs

February 9th 2024 PDT

HST 1 20580U 90037B 24039.69539607 .00007848 00000-0 38964-3 0 9997 2 20580 28.4688 131.4252 0003044 72.6105 287.4820 15.15844217657358 ISS (ZARYA) 1 25544U 98067A 24040.34770866 .00018695 00000-0 33857-3 0 9999 2 25544 51.6389 233.8315 0002053 219.5244 197.9820 15.49678460438579 CXO 1 25867U 99040B 24040.93994967 .00000904 00000-0 00000-0 0 9999 2 25867 38.6748 167.0934 8984272 286.5592 0.6300 0.37805510 14084 ...Continue Reading

[TLELIST] Current TLEs

February 9th 2024 PDT

HST 1 20580U 90037B 24039.69539607 .00007848 00000-0 38964-3 0 9997 2 20580 28.4688 131.4252 0003044 72.6105 287.4820 15.15844217657358 ISS (ZARYA) 1 25544U 98067A 24040.34770866 .00018695 00000-0 33857-3 0 9999 2 25544 51.6389 233.8315 0002053 219.5244 197.9820 15.49678460438579 CXO 1 25867U 99040B 24040.93994967 .00000904 00000-0 00000-0 0 9999 2 25867 38.6748 167.0934 8984272 286.5592 0.6300 0.37805510 14084 ...Continue Reading

[TLELIST] Current TLEs

February 8th 2024 PDT

HST 1 20580U 90037B 24038.70781157 .00007594 00000-0 37690-3 0 9990 2 20580 28.4685 138.0225 0002999 63.0106 297.0792 15.15829358657209 ISS (ZARYA) 1 25544U 98067A 24039.01003627 .00017286 00000-0 31432-3 0 9997 2 25544 51.6398 240.4555 0002067 215.9229 294.1058 15.49623054438366 CXO 1 25867U 99040B 24040.93994967 .00000904 00000-0 00000-0 0 9999 2 25867 38.6748 167.0934 8984272 286.5592 0.6300 0.37805510 14084 ...Continue Reading

[TLELIST] Current TLEs

February 7th 2024 PDT

HST 1 20580U 90037B 24037.72021725 .00006709 00000-0 33202-3 0 9991 2 20580 28.4680 144.6190 0002898 55.0346 305.0518 15.15813819657057 ISS (ZARYA) 1 25544U 98067A 24038.23820593 .00015716 00000-0 28688-3 0 9994 2 25544 51.6400 244.2771 0001898 204.0772 317.3673 15.49589938438245 CXO 1 25867U 99040B 24038.30087173 .00000889 00000-0 00000-0 0 9991 2 25867 38.6288 167.3734 8986238 286.3622 1.2517 0.37808644 14077 ...Continue Reading

[TLELIST] Current TLEs

February 7th 2024 PDT

HST 1 20580U 90037B 24037.72021725 .00006709 00000-0 33202-3 0 9991 2 20580 28.4680 144.6190 0002898 55.0346 305.0518 15.15813819657057 ISS (ZARYA) 1 25544U 98067A 24038.23820593 .00015716 00000-0 28688-3 0 9994 2 25544 51.6400 244.2771 0001898 204.0772 317.3673 15.49589938438245 CXO 1 25867U 99040B 24038.30087173 .00000889 00000-0 00000-0 0 9991 2 25867 38.6288 167.3734 8986238 286.3622 1.2517 0.37808644 14077 ...Continue Reading

[TLELIST] Current TLEs

February 6th 2024 PDT

HST 1 20580U 90037B 24036.73261363 .00006570 00000-0 32505-3 0 9996 2 20580 28.4678 151.2168 0002859 44.0730 316.0089 15.15801586656901 ISS (ZARYA) 1 25544U 98067A 24037.20615536 .00014912 00000-0 27301-3 0 9997 2 25544 51.6401 249.3892 0001810 205.4863 314.8810 15.49552210438086 CXO 1 25867U 99040B 24038.30087173 .00000889 00000-0 00000-0 0 9991 2 25867 38.6288 167.3734 8986238 286.3622 1.2517 0.37808644 14077 ...Continue Reading

[TLELIST] Current TLEs

February 6th 2024 PDT

HST 1 20580U 90037B 24036.73261363 .00006570 00000-0 32505-3 0 9996 2 20580 28.4678 151.2168 0002859 44.0730 316.0089 15.15801586656901 ISS (ZARYA) 1 25544U 98067A 24037.20615536 .00014912 00000-0 27301-3 0 9997 2 25544 51.6401 249.3892 0001810 205.4863 314.8810 15.49552210438086 CXO 1 25867U 99040B 24038.30087173 .00000889 00000-0 00000-0 0 9991 2 25867 38.6288 167.3734 8986238 286.3622 1.2517 0.37808644 14077 ...Continue Reading

[TLELIST] Current TLEs

February 5th 2024 PDT

HST 1 20580U 90037B 24035.74500162 .00006405 00000-0 31674-3 0 9992 2 20580 28.4677 157.8142 0002784 34.3697 325.7075 15.15790418656751 ISS (ZARYA) 1 25544U 98067A 24036.23733950 .00012685 00000-0 23378-3 0 9995 2 25544 51.6412 254.1840 0002268 198.2735 314.1411 15.49517523437931 CXO 1 25867U 99040B 24038.30087173 .00000889 00000-0 00000-0 0 9991 2 25867 38.6288 167.3734 8986238 286.3622 1.2517 0.37808644 14077 ...Continue Reading

[TLELIST] Current TLEs

February 4th 2024 PDT

HST 1 20580U 90037B 24034.75738228 .00005693 00000-0 28058-3 0 9998 2 20580 28.4678 164.4119 0002722 23.6194 336.4523 15.15779356656604 ISS (ZARYA) 1 25544U 98067A 24035.51427132 .00013312 00000-0 24504-3 0 9997 2 25544 51.6412 257.7623 0002262 195.9983 240.3224 15.49502007437823 CXO 1 25867U 99040B 24035.65432876 .00000814 00000-0 00000+0 0 9997 2 25867 38.5938 167.6425 8987917 286.1599 0.8610 0.37812418 25215 ...Continue Reading
  • This mailing list is a public mailing list - anyone may join or leave, at any time.
  • This mailing list is announce-only.

International Space Station (ISS) / Hubble Space Telescope (HST) / Chandra X-Ray Observatory Orbital Data via EMAIL

Privacy Policy:

Private list